Index of /~robert/pro/publications/slides

[ICO]NameLast modifiedSizeDescription

[PARENTDIR]Parent Directory  -  
[   ]2014-04-Grenoble.pdf2024-02-21 17:00 57K 
[   ]2014-12-Caen-Arithmetic_slides.pdf2024-02-21 17:00 60K 
[   ]2013-12-Rennes-Peace.pdf2024-02-21 17:00 166K 
[   ]2012-11-Peace-Paris.pdf2024-02-21 17:00 184K 
[   ]2012-05-Bordeaux.pdf2024-02-21 17:00 212K 
[   ]2011-02-Marseille_pairings.pdf2024-02-21 17:00 246K 
[   ]2011-04-C2-Oleron.pdf2024-02-21 17:00 254K 
[   ]2011-09-Bordeaux.pdf2024-02-21 17:00 258K 
[   ]2012-07-ANTS-SanDiego.pdf2024-02-21 17:00 270K 
[   ]2012-08-Microsoft.pdf2024-02-21 17:00 272K 
[   ]2009-10-Chic-Paris_pairings.pdf2024-02-21 17:00 278K 
[   ]2013-06-AGCT-Marseille.pdf2024-02-21 17:00 284K 
[   ]2013-08-Microsoft-Isogeny.pdf2024-02-21 17:00 285K 
[   ]2023-07-Korea-EwhaKMS.pdf2024-02-21 17:00 294K 
[   ]2022-11-FrenchTech.pdf2022-12-08 18:42 297K 
[   ]2011-03-Bordeaux.pdf2024-02-21 17:00 297K 
[   ]2013-11-Lfant.pdf2024-02-21 17:00 320K 
[   ]2013-10-Geocrypt-Tahiti.pdf2024-02-21 17:00 320K 
[   ]2010-07-ANTS-Nancy.pdf2024-02-21 17:00 334K 
[   ]2014-05-Ascona.pdf2024-02-21 17:00 342K 
[   ]2013-04-Grenoble.pdf2024-02-21 17:00 352K 
[   ]2013-08-Microsoft-Pairing.pdf2024-02-21 17:00 353K 
[   ]2013-05-Lausanne.pdf2024-02-21 17:00 361K 
[   ]2010-09-Microsoft.pdf2024-02-21 17:00 365K 
[   ]2010-12-Chic-Paris.pdf2024-02-21 17:00 370K 
[   ]2015-03-Franceville-Arithmetic.pdf2024-02-21 17:00 373K 
[   ]2014-01-Caen.pdf2024-02-21 17:00 390K 
[   ]2014-12-Caen-Isogenies.pdf2024-02-21 17:00 422K 
[   ]2010-07-Microsoft.pdf2024-02-21 17:00 428K 
[   ]2010-12-Bordeaux.pdf2024-02-21 17:00 446K 
[   ]2015-10-C2-LaLondeLesMaures.pdf2024-02-21 17:00 471K 
[   ]2014-10-ECC-Chennai.pdf2024-02-21 17:00 513K 
[   ]2011-06-Geocrypt-Bastia.pdf2024-02-21 17:00 514K 
[   ]2012-03-Caen.pdf2024-02-21 17:00 523K 
[   ]2011-01-Grenoble.pdf2024-02-21 17:00 524K 
[   ]2011-01-Versailles.pdf2024-02-21 17:00 524K 
[   ]2011-02-Marseille_theta.pdf2024-02-21 17:00 544K 
[   ]2014-03-Neuchatel.pdf2024-02-21 17:00 594K 
[   ]2011-11-Montpellier.pdf2024-02-21 17:00 607K 
[   ]2015-09-Providence-ICERM.pdf2024-02-21 17:00 639K 
[   ]2010-05-Moscou.pdf2024-02-21 17:00 656K 
[   ]2012-01-Telecom-Paris.pdf2024-02-21 17:00 671K 
[   ]2012-01-LIX-Paris.pdf2024-02-21 17:00 671K 
[   ]2009-10-Chic-Paris_isogenies.pdf2024-02-21 17:00 705K 
[   ]2023-04-Eurocrypt.pdf2024-02-21 17:00 707K 
[   ]2015-09-Providence-ICERM_long.pdf2024-02-21 17:00 727K 
[   ]2010-11-LIX-Paris.pdf2024-02-21 17:00 742K 
[   ]2010-10-ECC-Redmond.pdf2024-02-21 17:00 753K 
[   ]2023-03-Leuven.pdf2024-02-21 17:00 771K 
[   ]2022-12-VantageSeminar.pdf2024-02-21 17:00 795K 
[   ]2010-07-Phd-Nancy.pdf2024-02-21 17:00 811K 
[   ]2008-11-Tsukuba.pdf2024-02-21 17:00 830K 
[   ]2009-07-JourneesArithmetiques-SaintEtienne.pdf2024-02-21 17:00 837K 
[   ]2022-09-Unithe.pdf2022-12-08 18:42 886K 
[   ]2009-11-Marseille.pdf2024-02-21 17:00 1.0M 
[   ]2023-04-Grenoble.pdf2024-02-21 17:00 1.0M 
[   ]2009-04-Rennes.pdf2024-02-21 17:00 1.2M 
[   ]2010-02-Bordeaux.pdf2024-02-21 17:00 1.3M 
[   ]2022-09-Bordeaux-SIDH.pdf2024-02-21 17:00 1.6M 
[   ]2023-04-Eurocrypt_rump.pdf2023-05-31 16:39 2.7M 
[   ]2024-01-PQTLS-infinitesimal_pairings.pdf2024-02-21 17:00 3.4M 
[   ]2024-05-SQISignWorkshop.pdf2024-06-23 01:18 3.5M 
[   ]2021-06-HDR-Bordeaux.pdf2024-02-21 17:00 3.8M 
[   ]2023-10-Leuven.pdf2024-02-21 17:00 3.8M 
[   ]2022-09-Leuven-Isogenies.pdf2024-02-21 17:00 4.0M 
[   ]2023-09-Nancy.pdf2024-02-21 17:00 4.2M 
[   ]2024-06-Nutmic.pdf2024-06-23 01:18 4.8M 
[   ]2023-11-Bordeaux.pdf2024-02-21 17:00 5.2M 
[   ]2024-02-waterloo.pdf2024-03-04 21:23 5.2M 
[   ]2024-02-imb.pdf2024-02-21 17:00 5.2M 

Apache/2.4.59 (Debian) Server at www.normalesup.org Port 80